| time (UTC) | temp F | wind direction | speed knots | gust knots | rain 1hr in | rain 24hr in | rain mn in | humidity % | barometer mb |
| 20260507183008 | 53 | 41 | 1.7 | 0.0 | 0.00 | 0.00 | 0.96 | 52 | 1013.2 |
| 20260507181516 | 53 | 26 | 1.7 | 0.0 | 0.00 | 0.00 | 0.96 | 53 | 1012.8 |
| 20260507180108 | 53 | 131 | 1.7 | 0.0 | 0.00 | 0.00 | 0.95 | 53 | 1012.9 |
| 20260507174513 | 53 | 112 | 0.9 | 0.0 | 0.00 | 0.00 | 0.93 | 54 | 1013.6 |
| 20260507173016 | 53 | 69 | 0.9 | 0.0 | 0.00 | 0.00 | 0.90 | 54 | 1014.1 |
| 20260507171530 | 53 | 34 | 0.9 | 0.0 | 0.00 | 0.00 | 0.88 | 54 | 1014.1 |
| 20260507170012 | 54 | 91 | 0.9 | 0.0 | 0.00 | 0.00 | 0.86 | 54 | 1014.5 |
| 20260507164521 | 54 | 32 | 0.9 | 0.0 | 0.00 | 0.00 | 0.85 | 54 | 1014.1 |
| 20260507163030 | 54 | 159 | 0.9 | 0.0 | 0.00 | 0.00 | 0.84 | 55 | 1014.2 |
| 20260507161544 | 54 | 9 | 1.7 | 0.0 | 0.00 | 0.00 | 0.82 | 55 | 1013.9 |
| 20260507160031 | 55 | 40 | 1.7 | 0.0 | 0.00 | 0.00 | 0.78 | 55 | 1014.0 |
| 20260507154536 | 56 | 217 | 1.7 | 0.0 | 0.00 | 0.00 | 0.71 | 55 | 1013.5 |
| 20260507153042 | 56 | 339 | 1.7 | 0.0 | 0.00 | 0.00 | 0.62 | 56 | 1014.1 |
| 20260507151544 | 56 | 15 | 1.7 | 0.0 | 0.00 | 0.00 | 0.56 | 57 | 1014.3 |
| 20260507150035 | 56 | 344 | 2.6 | 0.0 | 0.00 | 0.00 | 0.51 | 56 | 1014.1 |
| 20260507144537 | 58 | 48 | 1.7 | 0.0 | 0.00 | 0.00 | 0.44 | 56 | 1014.3 |
| 20260507143045 | 59 | 72 | 1.7 | 0.0 | 0.00 | 0.00 | 0.43 | 57 | 1013.9 |
| 20260507141607 | 59 | 260 | 1.7 | 0.0 | 0.00 | 0.00 | 0.41 | 57 | 1013.9 |
| 20260507140040 | 60 | 198 | 1.7 | 0.0 | 0.00 | 0.00 | 0.41 | 57 | 1013.7 |
| 20260507134544 | 60 | 42 | 0.9 | 0.0 | 0.00 | 0.00 | 0.40 | 58 | 1013.6 |
| 20260507133059 | 60 | 34 | 0.9 | 0.0 | 0.00 | 0.00 | 0.39 | 59 | 1013.6 |
| 20260507131622 | 60 | 360 | 1.7 | 0.0 | 0.00 | 0.00 | 0.38 | 60 | 1013.4 |
| 20260507130051 | 60 | 38 | 1.7 | 0.0 | 0.00 | 0.00 | 0.35 | 61 | 1013.9 |
| 20260507124603 | 61 | 5 | 1.7 | 0.0 | 0.00 | 0.00 | 0.32 | 61 | 1014.1 |
| 20260507123107 | 62 | 17 | 1.7 | 0.0 | 0.00 | 0.00 | 0.32 | 60 | 1013.9 |
| 20260507121514 | 63 | 62 | 1.7 | 0.0 | 0.00 | 0.00 | 0.30 | 60 | 1014.0 |
| 20260507120100 | 66 | 43 | 0.9 | 0.0 | 0.00 | 0.00 | 0.24 | 60 | 1013.9 |
| 20260507114505 | 67 | 89 | 0.0 | 0.0 | 0.00 | 0.00 | 0.19 | 62 | 1013.4 |
| 20260507113030 | 67 | 89 | 0.0 | 0.0 | 0.00 | 0.00 | 0.13 | 62 | 1013.4 |
| 20260507111526 | 67 | 89 | 0.0 | 0.0 | 0.00 | 0.00 | 0.08 | 62 | 1013.2 |
| 20260507110007 | 67 | 89 | 0.0 | 0.0 | 0.00 | 0.00 | 0.03 | 63 | 1013.2 |
| 20260507104518 | 67 | 89 | 0.0 | 0.0 | 0.00 | 0.00 | 0.02 | 63 | 1013.1 |
| 20260507103023 | 67 | 107 | 0.0 | 0.0 | 0.00 | 0.00 | 0.02 | 63 | 1013.0 |
| 20260507101526 | 67 | 112 | 0.0 | 0.0 | 0.00 | 0.00 | 0.01 | 63 | 1012.7 |
| 20260507100030 | 67 | 109 | 0.0 | 0.0 | 0.00 | 0.00 | 0.01 | 64 | 1012.3 |
| 20260507094522 | 67 | 103 | 0.0 | 0.0 | 0.00 | 0.00 | 0.01 | 64 | 1012.1 |
| 20260507093034 | 68 | 153 | 0.0 | 0.0 | 0.00 | 0.00 | 0.01 | 64 | 1011.9 |
| 20260507091544 | 68 | 130 | 0.0 | 0.0 | 0.00 | 0.00 | 0.01 | 64 | 1011.9 |
| 20260507090029 | 68 | 269 | 0.9 | 0.0 | 0.00 | 0.00 | 0.01 | 64 | 1012.3 |
| 20260507084551 | 68 | 180 | 0.0 | 0.0 | 0.00 | 0.00 | 0.01 | 63 | 1012.4 |
| 20260507083048 | 68 | 164 | 0.9 | 0.0 | 0.00 | 0.00 | 0.01 | 63 | 1012.8 |
| 20260507081601 | 68 | 258 | 0.0 | 0.0 | 0.00 | 0.00 | 0.01 | 63 | 1012.9 |
| 20260507080051 | 68 | 302 | 0.0 | 0.0 | 0.00 | 0.00 | 0.01 | 63 | 1012.9 |
| 20260507074555 | 68 | 289 | 0.9 | 0.0 | 0.00 | 0.00 | 0.01 | 64 | 1013.3 |
| 20260507073109 | 68 | 221 | 0.0 | 0.0 | 0.00 | 0.00 | 0.01 | 64 | 1013.0 |
| 20260507071504 | 68 | 273 | 0.0 | 0.0 | 0.00 | 0.00 | 0.01 | 63 | 1013.0 |
| 20260507070059 | 68 | 106 | 0.0 | 0.0 | 0.00 | 0.00 | 0.01 | 63 | 1013.0 |
| 20260507064602 | 68 | 105 | 0.0 | 0.0 | 0.00 | 0.00 | 0.00 | 63 | 1012.5 |
| 20260507063002 | 69 | 105 | 0.0 | 0.0 | 0.00 | 0.00 | 0.00 | 62 | 1012.4 |
| 20260507061507 | 69 | 104 | 0.0 | 0.0 | 0.00 | 0.00 | 0.00 | 61 | 1013.3 |
| 20260507060058 | 70 | 204 | 0.0 | 0.0 | 0.00 | 0.00 | 0.00 | 60 | 1014.0 |
| 20260507054601 | 70 | 146 | 0.0 | 0.0 | 0.00 | 0.00 | 0.00 | 59 | 1014.1 |
| 20260507053104 | 70 | 89 | 0.0 | 0.0 | 0.00 | 0.00 | 0.00 | 58 | 1014.0 |
| 20260507051510 | 71 | 194 | 0.0 | 0.0 | 0.00 | 0.00 | 0.00 | 57 | 1014.1 |
| 20260507050110 | 70 | 182 | 0.0 | 0.0 | 0.00 | 0.00 | 0.00 | 56 | 1014.0 |
| 20260507044505 | 70 | 79 | 0.0 | 0.0 | 0.00 | 0.00 | 0.00 | 56 | 1013.8 |
| 20260507043011 | 70 | 192 | 0.0 | 0.0 | 0.00 | 0.00 | 0.00 | 56 | 1013.9 |
| 20260507041513 | 70 | 191 | 0.0 | 0.0 | 0.00 | 0.00 | 0.00 | 57 | 1014.0 |
| 20260507040111 | 70 | 129 | 0.0 | 0.0 | 0.00 | 0.00 | 0.00 | 57 | 1013.9 |
| 20260507034506 | 70 | 144 | 0.0 | 0.0 | 0.00 | 0.00 | 0.00 | 57 | 1013.5 |
| 20260507033020 | 70 | 144 | 0.0 | 0.0 | 0.00 | 0.00 | 0.00 | 56 | 1013.6 |
| 20260507031525 | 71 | 144 | 0.0 | 0.0 | 0.00 | 0.00 | 0.00 | 55 | 1013.5 |
| 20260507030004 | 71 | 144 | 0.0 | 0.0 | 0.00 | 0.00 | 0.00 | 55 | 1013.6 |
| 20260507024515 | 72 | 144 | 0.0 | 0.0 | 0.00 | 0.00 | 0.00 | 54 | 1013.9 |
| 20260507023015 | 72 | 144 | 0.0 | 0.0 | 0.00 | 0.00 | 0.00 | 53 | 1014.1 |
| 20260507021531 | 72 | 143 | 0.0 | 0.0 | 0.00 | 0.00 | 0.00 | 53 | 1014.0 |
| 20260507014512 | 73 | 144 | 0.0 | 0.0 | 0.00 | 0.00 | 0.00 | 52 | 1014.3 |
| 20260507013018 | 74 | 144 | 0.0 | 0.0 | 0.00 | 0.00 | 0.00 | 51 | 1014.0 |
| 20260507011530 | 74 | 144 | 0.0 | 0.0 | 0.00 | 0.00 | 0.00 | 50 | 1014.1 |
| 20260507010027 | 74 | 144 | 0.0 | 0.0 | 0.00 | 0.00 | 0.00 | 50 | 1014.2 |
| 20260507004524 | 75 | 144 | 0.0 | 0.0 | 0.00 | 0.00 | 0.00 | 49 | 1014.2 |
| 20260507003035 | 75 | 144 | 0.0 | 0.0 | 0.00 | 0.00 | 0.00 | 48 | 1013.8 |
| 20260507001541 | 76 | 144 | 0.0 | 0.0 | 0.00 | 0.00 | 0.00 | 47 | 1013.6 |
| 20260507000018 | 76 | 144 | 0.0 | 0.0 | 0.00 | 0.00 | 0.00 | 46 | 1013.4 |
| 20260506234530 | 77 | 144 | 0.0 | 0.0 | 0.00 | 0.00 | 0.00 | 46 | 1013.5 |
| 20260506233038 | 77 | 139 | 0.0 | 0.0 | 0.00 | 0.00 | 0.00 | 45 | 1013.1 |
| 20260506231546 | 78 | 138 | 0.0 | 0.0 | 0.00 | 0.00 | 0.00 | 44 | 1013.3 |
| 20260506230033 | 78 | 135 | 0.0 | 0.0 | 0.00 | 0.00 | 0.00 | 43 | 1013.0 |
| 20260506224546 | 79 | 206 | 0.0 | 0.0 | 0.00 | 0.00 | 0.00 | 43 | 1013.1 |
| 20260506223059 | 79 | 61 | 0.0 | 0.0 | 0.00 | 0.00 | 0.00 | 44 | 1013.1 |
| 20260506221558 | 79 | 79 | 0.9 | 0.0 | 0.00 | 0.00 | 0.00 | 43 | 1012.9 |
| 20260506220041 | 79 | 258 | 0.0 | 0.0 | 0.00 | 0.00 | 0.00 | 44 | 1013.1 |
| 20260506214552 | 80 | 211 | 0.0 | 0.0 | 0.00 | 0.00 | 0.00 | 44 | 1013.1 |
| 20260506213100 | 80 | 127 | 0.9 | 0.0 | 0.00 | 0.00 | 0.00 | 42 | 1012.5 |
| 20260506211500 | 80 | 182 | 0.9 | 0.0 | 0.00 | 0.00 | 0.00 | 43 | 1012.8 |
| 20260506210054 | 80 | 248 | 1.7 | 0.0 | 0.00 | 0.00 | 0.00 | 42 | 1013.2 |
| 20260506204603 | 80 | 223 | 1.7 | 0.0 | 0.00 | 0.00 | 0.00 | 43 | 1013.3 |
| 20260506203016 | 80 | 107 | 1.7 | 0.0 | 0.00 | 0.00 | 0.00 | 42 | 1013.6 |
| 20260506201511 | 80 | 156 | 1.7 | 0.0 | 0.00 | 0.00 | 0.00 | 42 | 1013.8 |
| 20260506200112 | 80 | 224 | 1.7 | 0.0 | 0.00 | 0.00 | 0.00 | 43 | 1014.1 |
| 20260506194502 | 80 | 269 | 2.6 | 0.0 | 0.00 | 0.00 | 0.00 | 44 | 1014.5 |
| 20260506193016 | 79 | 189 | 1.7 | 0.0 | 0.00 | 0.00 | 0.00 | 46 | 1014.5 |
| 20260506191516 | 78 | 221 | 0.9 | 0.0 | 0.00 | 0.00 | 0.00 | 48 | 1014.6 |
| 20260506190006 | 78 | 329 | 0.9 | 0.0 | 0.00 | 0.00 | 0.00 | 47 | 1014.6 |
| 20260506184509 | 79 | 198 | 2.6 | 0.0 | 0.00 | 0.00 | 0.00 | 45 | 1014.9 |